Location: Aalsum
(53.3404°N, 6.0062°E)
Time: 09:31:37
(UTC+00:00)

Cosmos 2251 Rocket - Pass Details

Date: 28 January 2023
Orbit: 764 x 791 km, 74.0° (Epoch: 19 March)

Event Time Altitude Azimuth Distance (km) Brightness Sun altitude
Rises 18:29:21 0° 206° (SSW) 3,260 7.2 -20.4°
Reaches altitude 10° 18:31:43 10° 207° (SSW) 2,340 6.4 -20.8°
Maximum altitude 18:37:03 83° 295° (WNW) 801 3.5 -21.6°
Enters shadow 18:40:46 21° 24° (NNE) 1,728 5.1 -22.1°
